GW7559 Weather Reports


time (UTC)temp
F
wind
direction
speed
knots
gust
knots
rain 1hr
in
rain 24hr
in
rain mn
in
humidity
%
barometer
mb
20260906172117 99 348 1.7 2.6 0.00 0.00 0.00 36 1017.2
20260906171616 99 270 0.9 1.7 0.00 0.00 0.00 36 1017.6
20260906171112 98 125 0.9 2.6 0.00 0.00 0.00 36 1017.6
20260906170608 98 122 0.9 1.7 0.00 0.00 0.00 36 1017.6
20260906170107 98 265 0.9 0.9 0.00 0.00 0.00 37 1017.7
20260906165604 97 305 0.9 0.9 0.00 0.00 0.00 39 1017.6
20260906165059 97 344 0.9 1.7 0.00 0.00 0.00 40 1017.7
20260906164558 98 37 1.7 1.7 0.00 0.00 0.00 39 1017.8
20260906164054 98 6 0.0 1.7 0.00 0.00 0.00 39 1017.9
20260906163549 97 150 0.9 0.9 0.00 0.00 0.00 40 1017.9
20260906163045 96 124 0.9 2.6 0.00 0.00 0.00 41 1017.9
20260906162542 96 27 1.7 2.6 0.00 0.00 0.00 41 1018.0
20260906162037 96 159 1.7 2.6 0.00 0.00 0.00 40 1017.8
20260906161532 96 314 2.6 2.6 0.00 0.00 0.00 41 1018.0
20260906161031 95 10 2.6 2.6 0.00 0.00 0.00 41 1018.0
20260906160530 95 245 0.9 0.9 0.00 0.00 0.00 42 1018.1
20260906160029 95 335 0.9 2.6 0.00 0.00 0.00 42 1018.0
20260906155526 94 152 0.9 3.5 0.00 0.00 0.00 42 1018.0
20260906155023 94 357 0.9 2.6 0.00 0.00 0.00 42 1018.0
20260906154517 93 354 1.7 2.6 0.00 0.00 0.00 43 1017.9
20260906154016 93 25 1.7 1.7 0.00 0.00 0.00 43 1017.8
20260906153515 92 12 2.6 2.6 0.00 0.00 0.00 44 1017.9
20260906153012 93 12 1.7 1.7 0.00 0.00 0.00 43 1017.8
20260906152511 94 157 1.7 2.6 0.00 0.00 0.00 44 1017.9
20260906152010 94 222 0.0 0.0 0.00 0.00 0.00 43 1017.9
20260906151506 92 206 0.0 0.0 0.00 0.00 0.00 44 1017.8
20260906151001 91 313 0.0 0.0 0.00 0.00 0.00 45 1017.8
20260906150456 92 295 1.7 0.9 0.00 0.00 0.00 45 1017.7
20260906145955 91 147 0.0 0.0 0.00 0.00 0.00 45 1017.8
20260906145450 91 101 0.0 0.0 0.00 0.00 0.00 46 1017.6
20260906144949 91 311 0.0 0.0 0.00 0.00 0.00 46 1017.7
20260906144444 91 229 0.0 1.7 0.00 0.00 0.00 47 1017.6
20260906143940 90 200 0.9 0.9 0.00 0.00 0.00 48 1017.8
20260906143435 90 195 0.9 0.9 0.00 0.00 0.00 49 1017.8
20260906142931 90 136 0.0 0.0 0.00 0.00 0.00 48 1017.8
20260906142431 90 136 0.0 0.0 0.00 0.00 0.00 50 1017.7
20260906141926 89 135 0.0 0.0 0.00 0.00 0.00 52 1017.9
20260906141425 88 135 0.0 0.0 0.00 0.00 0.00 53 1017.9
20260906140920 86 135 0.0 0.0 0.00 0.00 0.00 55 1017.7
20260906140415 86 135 0.0 0.0 0.00 0.00 0.00 57 1017.9
20260906135913 85 135 0.0 0.0 0.00 0.00 0.00 58 1017.8
20260906135412 84 135 0.0 1.7 0.00 0.00 0.00 60 1018.0
20260906134908 84 136 0.9 1.7 0.00 0.00 0.00 60 1017.6
20260906134403 84 137 0.9 1.7 0.00 0.00 0.00 61 1017.6
20260906133858 84 144 0.0 1.7 0.00 0.00 0.00 62 1017.7
20260906133354 83 149 0.0 1.7 0.00 0.00 0.00 62 1017.6
20260906132849 82 161 0.0 1.7 0.00 0.00 0.00 63 1017.6
20260906132344 82 162 0.0 0.0 0.00 0.00 0.00 65 1017.6
20260906131840 80 162 0.0 0.0 0.00 0.00 0.00 71 1017.6
20260906131335 78 161 0.0 0.0 0.00 0.00 0.00 73 1017.4
20260906130831 77 162 0.0 0.0 0.00 0.00 0.00 75 1017.7
20260906130330 77 162 0.0 0.0 0.00 0.00 0.00 76 1017.5
20260906125829 76 162 0.0 0.0 0.00 0.00 0.00 77 1017.4
20260906125326 76 162 0.0 0.0 0.00 0.00 0.00 78 1017.3
20260906124821 75 162 0.0 0.0 0.00 0.00 0.00 78 1017.4
20260906124318 75 162 0.0 0.0 0.00 0.00 0.00 80 1017.3
20260906123816 74 162 0.0 0.0 0.00 0.00 0.00 81 1017.4
20260906123312 73 162 0.0 0.0 0.00 0.00 0.00 83 1017.1
20260906122811 72 162 0.0 0.0 0.00 0.00 0.00 84 1017.2
20260906122306 72 162 0.0 0.0 0.00 0.00 0.00 85 1017.1
20260906121803 72 162 0.0 0.0 0.00 0.00 0.00 85 1017.0
20260906121259 72 162 0.0 0.0 0.00 0.00 0.00 84 1016.8
20260906120755 72 162 0.0 0.0 0.00 0.00 0.00 85 1016.7
20260906120251 72 162 0.0 0.0 0.00 0.00 0.00 84 1016.8
20260906115747 72 162 0.0 0.0 0.00 0.00 0.00 84 1016.7
20260906115242 72 162 0.0 0.0 0.00 0.00 0.00 84 1016.5
20260906114740 73 162 0.0 0.0 0.00 0.00 0.00 83 1016.6
20260906114236 73 162 0.0 0.0 0.00 0.00 0.00 82 1016.6
20260906113732 73 162 0.0 0.0 0.00 0.00 0.00 83 1016.4
20260906113231 73 162 0.0 0.0 0.00 0.00 0.00 82 1016.5
20260906112730 73 162 0.0 0.0 0.00 0.00 0.00 82 1016.5
20260906112227 73 162 0.0 0.0 0.00 0.00 0.00 82 1016.5
20260906111726 73 162 0.0 0.0 0.00 0.00 0.00 81 1016.2
20260906111221 73 162 0.0 0.0 0.00 0.00 0.00 81 1016.2
20260906110716 73 162 0.0 0.0 0.00 0.00 0.00 81 1016.6
20260906110212 73 162 0.0 0.0 0.00 0.00 0.00 81 1016.5
20260906105711 73 162 0.0 0.0 0.00 0.00 0.00 81 1016.3
20260906105208 73 162 0.0 0.0 0.00 0.00 0.00 81 1016.3
20260906104707 73 162 0.0 0.0 0.00 0.00 0.00 82 1016.4
20260906104206 73 162 0.0 0.0 0.00 0.00 0.00 82 1016.4
20260906103704 73 162 0.0 0.0 0.00 0.00 0.00 81 1016.4
20260906103159 73 162 0.0 0.0 0.00 0.00 0.00 81 1016.5
20260906102654 73 162 0.0 0.0 0.00 0.00 0.00 80 1016.5
20260906102154 73 162 0.0 0.0 0.00 0.00 0.00 80 1016.4
20260906101654 73 162 0.0 0.0 0.00 0.00 0.00 80 1016.5
20260906101149 73 162 0.0 0.0 0.00 0.00 0.00 80 1016.4
20260906100644 73 162 0.0 0.0 0.00 0.00 0.00 79 1016.4
20260906100139 73 162 0.0 0.0 0.00 0.00 0.00 80 1016.2
20260906095634 73 162 0.0 0.0 0.00 0.00 0.00 79 1016.3
20260906095129 74 162 0.0 0.0 0.00 0.00 0.00 79 1016.2
20260906094628 74 162 0.0 0.0 0.00 0.00 0.00 79 1016.3
20260906094124 74 162 0.0 0.0 0.00 0.00 0.00 79 1016.3
20260906093620 74 162 0.0 0.0 0.00 0.00 0.00 78 1016.4
20260906093120 74 162 0.0 0.0 0.00 0.00 0.00 77 1016.2
20260906092615 74 162 0.0 0.0 0.00 0.00 0.00 77 1016.2
20260906092110 74 162 0.0 0.0 0.00 0.00 0.00 77 1016.3
20260906091606 75 162 0.0 0.0 0.00 0.00 0.00 77 1016.3
20260906091103 75 162 0.0 0.0 0.00 0.00 0.00 76 1016.3
20260906090602 75 162 0.0 0.0 0.00 0.00 0.00 76 1016.1
20260906085602 75 162 0.0 0.0 0.00 0.00 0.00 75 1016.0
20260906085056 75 162 0.0 0.0 0.00 0.00 0.00 75 1016.1
20260906084551 75 162 0.0 0.0 0.00 0.00 0.00 74 1015.9
20260906084050 75 162 0.0 0.0 0.00 0.00 0.00 74 1016.1
20260906083545 75 162 0.0 0.0 0.00 0.00 0.00 75 1016.1
20260906083045 76 162 0.0 0.0 0.00 0.00 0.00 74 1016.0
20260906082540 76 162 0.0 0.0 0.00 0.00 0.00 74 1016.0
20260906082036 76 162 0.0 0.0 0.00 0.00 0.00 73 1016.0
20260906081532 76 162 0.0 0.0 0.00 0.00 0.00 72 1015.9
20260906081027 76 162 0.0 0.0 0.00 0.00 0.00 72 1015.9
20260906080524 76 162 0.0 0.0 0.00 0.00 0.00 72 1016.0
20260906080020 77 162 0.0 0.0 0.00 0.00 0.00 72 1015.8
20260906075519 77 162 0.0 0.0 0.00 0.00 0.00 71 1015.7
20260906075014 77 162 0.0 0.0 0.00 0.00 0.00 71 1016.1
20260906074509 77 162 0.0 0.0 0.00 0.00 0.00 70 1016.0
20260906074007 77 162 0.0 0.0 0.00 0.00 0.00 69 1015.8
20260906073502 78 162 0.0 0.0 0.00 0.00 0.00 69 1015.9
20260906072958 78 162 0.0 0.0 0.00 0.00 0.00 68 1015.9
20260906072453 78 162 0.0 0.0 0.00 0.00 0.00 67 1016.1
20260906071949 78 162 0.0 0.0 0.00 0.00 0.00 67 1016.1
20260906071446 77 162 0.0 0.0 0.00 0.00 0.00 69 1016.0
20260906070941 78 162 0.0 0.0 0.00 0.00 0.00 69 1016.0
20260906070436 78 162 0.0 0.0 0.00 0.00 0.00 69 1016.1
20260906065932 78 162 0.0 0.0 0.00 0.00 0.00 68 1016.1
20260906065426 78 162 0.0 0.0 0.00 0.00 0.00 68 1016.0
20260906064922 78 162 0.0 0.0 0.00 0.00 0.00 68 1016.0
20260906064418 78 162 0.0 0.0 0.00 0.00 0.00 68 1016.1
20260906063918 78 162 0.0 0.0 0.00 0.00 0.00 68 1016.2
20260906063413 78 162 0.0 0.0 0.00 0.00 0.00 67 1016.4
20260906062908 79 162 0.0 0.0 0.00 0.00 0.00 66 1016.2
20260906062408 78 162 0.0 0.0 0.00 0.00 0.00 66 1016.2
20260906061904 79 162 0.0 0.0 0.00 0.00 0.00 66 1016.3
20260906061400 79 162 0.0 0.0 0.00 0.00 0.00 66 1016.3
20260906060859 79 162 0.0 0.0 0.00 0.00 0.00 65 1016.3
20260906060358 79 162 0.0 0.0 0.00 0.00 0.00 66 1016.2
20260906055853 79 162 0.0 0.0 0.00 0.00 0.00 65 1016.2
20260906055349 80 162 0.0 0.0 0.00 0.00 0.00 64 1016.3
20260906054844 80 162 0.0 0.0 0.00 0.00 0.00 63 1016.3
20260906054339 80 162 0.0 0.0 0.00 0.00 0.00 62 1016.3
20260906053835 81 162 0.0 0.0 0.00 0.00 0.00 62 1016.3
20260906053331 80 162 0.0 0.0 0.00 0.00 0.00 62 1016.2
20260906052826 80 177 0.0 0.0 0.00 0.00 0.00 63 1016.1
20260906052322 80 177 0.0 0.0 0.00 0.00 0.00 63 1016.1
20260906051819 80 177 0.0 0.0 0.00 0.00 0.00 63 1016.1
20260906051318 80 177 0.0 0.0 0.00 0.00 0.00 62 1015.9
20260906050814 80 177 0.0 0.0 0.00 0.00 0.00 63 1016.1
20260906050309 80 141 0.0 0.0 0.00 0.00 0.00 63 1016.2
20260906045808 80 141 0.0 0.0 0.00 0.00 0.00 62 1015.9
20260906045305 80 141 0.0 0.0 0.00 0.00 0.00 63 1016.2
20260906044759 80 141 0.0 0.0 0.00 0.00 0.00 63 1016.0
20260906044253 80 141 0.0 0.0 0.00 0.00 0.00 63 1015.9
20260906043749 81 141 0.0 0.0 0.00 0.00 0.00 62 1016.2
20260906043245 81 141 0.0 0.0 0.00 0.00 0.00 62 1016.1
20260906042745 81 141 0.0 0.0 0.00 0.00 0.00 62 1016.2
20260906042244 81 141 0.0 0.0 0.00 0.00 0.00 63 1016.2
20260906041739 81 141 0.0 0.0 0.00 0.00 0.00 62 1016.0
20260906041235 81 141 0.0 0.0 0.00 0.00 0.00 62 1016.2
20260906040730 81 141 0.0 0.0 0.00 0.00 0.00 62 1016.1
20260906040225 81 140 0.0 0.0 0.00 0.00 0.00 62 1015.9
20260906035721 81 141 0.0 0.0 0.00 0.00 0.00 62 1016.1
20260906035216 81 141 0.0 0.0 0.00 0.00 0.00 62 1016.1
20260906034716 81 141 0.0 0.0 0.00 0.00 0.00 62 1016.0
20260906034211 81 141 0.0 0.0 0.00 0.00 0.00 62 1016.2
20260906033707 81 141 0.0 0.0 0.00 0.00 0.00 62 1016.1
20260906033207 82 141 0.0 0.0 0.00 0.00 0.00 61 1016.1
20260906032704 82 140 0.0 0.0 0.00 0.00 0.00 61 1015.9
20260906032158 82 141 0.0 0.0 0.00 0.00 0.00 61 1016.0
20260906031653 82 141 0.0 0.0 0.00 0.00 0.00 60 1015.8
20260906031148 82 140 0.0 0.0 0.00 0.00 0.00 60 1015.9
20260906030648 83 141 0.0 0.0 0.00 0.00 0.00 59 1016.0
20260906030143 83 141 0.0 0.0 0.00 0.00 0.00 59 1015.7
20260906025642 83 141 0.0 0.0 0.00 0.00 0.00 58 1015.8
20260906025142 83 141 0.0 0.0 0.00 0.00 0.00 58 1015.5
20260906024637 83 141 0.0 0.0 0.00 0.00 0.00 58 1015.7
20260906024136 84 141 0.0 0.0 0.00 0.00 0.00 58 1015.5
20260906023632 84 141 0.0 0.0 0.00 0.00 0.00 56 1015.5
20260906023132 84 140 0.0 0.0 0.00 0.00 0.00 56 1015.5
20260906022627 85 140 0.0 0.9 0.00 0.00 0.00 55 1015.5
20260906022123 85 166 0.0 0.0 0.00 0.00 0.00 55 1015.5
20260906021619 85 174 0.0 0.0 0.00 0.00 0.00 55 1015.4
20260906021117 85 174 0.0 0.0 0.00 0.00 0.00 54 1015.3
20260906020617 86 175 0.0 0.0 0.00 0.00 0.00 53 1015.3
20260906020111 86 198 0.0 0.0 0.00 0.00 0.00 52 1015.1
20260906015606 86 160 0.9 1.7 0.00 0.00 0.00 51 1014.9
20260906015105 86 200 0.0 0.9 0.00 0.00 0.00 51 1015.1
20260906014559 87 198 0.0 0.0 0.00 0.00 0.00 51 1015.0
20260906014056 87 144 0.0 0.0 0.00 0.00 0.00 50 1014.9
20260906013551 88 120 1.7 1.7 0.00 0.00 0.00 49 1014.8
20260906013046 88 161 0.9 0.9 0.00 0.00 0.00 48 1015.0
20260906012542 89 159 0.0 0.0 0.00 0.00 0.00 47 1014.7
20260906012041 89 159 0.0 0.9 0.00 0.00 0.00 46 1014.7
20260906011537 90 180 0.0 0.9 0.00 0.00 0.00 46 1014.6
20260906011037 90 186 0.0 0.0 0.00 0.00 0.00 45 1014.6
20260906010532 91 182 0.0 0.0 0.00 0.00 0.00 43 1014.6
20260906010029 91 308 1.7 6.1 0.00 0.00 0.00 42 1014.6
20260906005527 90 170 0.0 0.0 0.00 0.00 0.00 44 1014.5
20260906005027 90 171 0.0 0.0 0.00 0.00 0.00 44 1014.7
20260906004526 91 171 0.0 0.0 0.00 0.00 0.00 43 1014.3
20260906004021 91 171 0.0 0.0 0.00 0.00 0.00 43 1014.4
20260906003516 92 171 0.0 0.0 0.00 0.00 0.00 43 1014.6
20260906003013 92 171 0.0 0.0 0.00 0.00 0.00 43 1014.5
20260906002507 92 171 0.0 0.0 0.00 0.00 0.00 42 1014.7
20260906002002 93 191 0.0 0.0 0.00 0.00 0.00 42 1014.5
20260906001457 93 169 0.0 0.0 0.00 0.00 0.00 41 1014.5
20260906000951 94 200 0.0 0.0 0.00 0.00 0.00 40 1014.6
20260906000448 95 184 0.0 1.7 0.00 0.00 0.00 38 1014.6
20260905235942 95 207 0.0 0.9 0.00 0.00 0.00 37 1014.6
20260905235442 96 207 0.0 1.7 0.00 0.00 0.00 36 1014.6
20260905234937 97 175 0.0 0.0 0.00 0.00 0.00 32 1014.5
20260905234433 98 175 0.0 0.9 0.00 0.00 0.00 30 1014.3
20260905233932 98 175 0.9 1.7 0.00 0.00 0.00 30 1014.4
20260905233428 98 170 0.9 1.7 0.00 0.00 0.00 29 1014.3
20260905232927 99 161 0.0 0.0 0.00 0.00 0.00 30 1014.4
20260905232423 99 169 0.9 0.9 0.00 0.00 0.00 30 1014.2
20260905231918 100 178 0.0 0.0 0.00 0.00 0.00 29 1014.2
20260905231414 100 179 0.9 0.9 0.00 0.00 0.00 28 1014.4
20260905230911 100 352 1.7 1.7 0.00 0.00 0.00 28 1014.3
20260905230408 101 262 0.9 1.7 0.00 0.00 0.00 28 1014.2
20260905225907 101 357 0.9 1.7 0.00 0.00 0.00 27 1014.4
20260905225402 101 11 0.9 0.9 0.00 0.00 0.00 27 1014.4
20260905224857 101 295 0.0 0.9 0.00 0.00 0.00 27 1014.1
20260905224354 101 78 0.9 1.7 0.00 0.00 0.00 28 1014.3
20260905223848 101 111 0.9 1.7 0.00 0.00 0.00 27 1014.4
20260905223346 101 184 0.9 0.9 0.00 0.00 0.00 27 1014.1
20260905222846 102 219 0.0 1.7 0.00 0.00 0.00 27 1014.2
20260905222344 102 283 1.7 1.7 0.00 0.00 0.00 26 1014.3
20260905221841 103 162 1.7 2.6 0.00 0.00 0.00 25 1014.3
20260905221337 103 256 0.0 0.9 0.00 0.00 0.00 26 1014.1
20260905220833 102 154 0.9 0.9 0.00 0.00 0.00 26 1014.3
20260905220329 102 228 0.9 1.7 0.00 0.00 0.00 28 1014.4
20260905215828 102 203 1.7 1.7 0.00 0.00 0.00 28 1014.5
20260905215324 102 125 3.5 3.5 0.00 0.00 0.00 27 1014.6
20260905214820 102 166 0.9 6.1 0.00 0.00 0.00 28 1014.4
20260905214315 102 310 1.7 1.7 0.00 0.00 0.00 26 1014.4
20260905213810 103 350 0.0 0.9 0.00 0.00 0.00 27 1014.5
20260905213306 103 219 0.9 0.9 0.00 0.00 0.00 26 1014.5
20260905212801 103 224 1.7 1.7 0.00 0.00 0.00 26 1014.7
20260905212300 102 267 0.9 1.7 0.00 0.00 0.00 27 1014.7
20260905211755 102 246 2.6 2.6 0.00 0.00 0.00 27 1014.7
20260905211250 101 233 0.9 2.6 0.00 0.00 0.00 29 1014.9
20260905210747 100 271 0.0 1.7 0.00 0.00 0.00 29 1014.9
20260905210246 102 79 0.9 3.5 0.00 0.00 0.00 29 1015.1
20260905205745 101 306 0.9 1.7 0.00 0.00 0.00 28 1015.1
20260905205240 101 163 0.9 0.9 0.00 0.00 0.00 30 1015.1
20260905204739 100 276 0.9 1.7 0.00 0.00 0.00 30 1015.3
20260905204235 101 168 1.7 3.5 0.00 0.00 0.00 29 1015.4
20260905203735 101 331 2.6 2.6 0.00 0.00 0.00 30 1015.3
20260905203230 100 275 1.7 2.6 0.00 0.00 0.00 31 1015.5
20260905202726 100 17 2.6 5.2 0.00 0.00 0.00 32 1015.7
20260905202221 99 311 1.7 2.6 0.00 0.00 0.00 31 1015.7
20260905201717 99 212 0.9 0.9 0.00 0.00 0.00 33 1015.8
20260905201217 100 168 3.5 3.5 0.00 0.00 0.00 32 1015.7
20260905200712 101 296 1.7 2.6 0.00 0.00 0.00 31 1015.9
20260905200208 101 270 0.0 0.9 0.00 0.00 0.00 32 1016.0
20260905195705 100 257 0.0 1.7 0.00 0.00 0.00 32 1016.0
20260905195201 100 226 0.0 1.7 0.00 0.00 0.00 31 1016.1
20260905194656 100 235 0.0 0.9 0.00 0.00 0.00 32 1016.0
20260905194155 100 151 1.7 2.6 0.00 0.00 0.00 31 1016.0
20260905193649 99 212 0.0 1.7 0.00 0.00 0.00 33 1016.2
20260905193145 97 88 0.9 2.6 0.00 0.00 0.00 34 1016.4
20260905192640 97 14 1.7 2.6 0.00 0.00 0.00 35 1016.4
20260905192137 97 295 0.9 1.7 0.00 0.00 0.00 35 1016.4
20260905191636 97 280 0.9 0.9 0.00 0.00 0.00 36 1016.5
20260905191134 99 24 0.0 2.6 0.00 0.00 0.00 35 1016.4
20260905190633 101 320 1.7 2.6 0.00 0.00 0.00 35 1016.6
20260905190132 100 285 1.7 2.6 0.00 0.00 0.00 34 1016.8
20260905185631 101 20 2.6 2.6 0.00 0.00 0.00 33 1016.7
20260905185126 101 21 2.6 2.6 0.00 0.00 0.00 32 1016.8
20260905184620 100 254 0.9 3.5 0.00 0.00 0.00 34 1016.9
20260905184119 100 306 1.7 2.6 0.00 0.00 0.00 33 1017.0
20260905183618 99 313 1.7 1.7 0.00 0.00 0.00 34 1017.0
20260905183114 98 338 1.7 3.5 0.00 0.00 0.00 38 1017.1
20260905182614 96 231 0.0 0.9 0.00 0.00 0.00 38 1017.2
20260905182113 96 183 1.7 1.7 0.00 0.00 0.00 38 1017.6
20260905181614 96 56 0.9 1.7 0.00 0.00 0.00 39 1017.3
20260905181113 97 333 2.6 5.2 0.00 0.00 0.00 38 1017.4
20260905180608 98 13 1.7 2.6 0.00 0.00 0.00 37 1017.4
20260905180103 100 350 3.5 3.5 0.00 0.00 0.00 35 1017.5
20260905175602 99 323 2.6 3.5 0.00 0.00 0.00 35 1017.6
20260905175058 98 211 1.7 2.6 0.00 0.00 0.00 35 1017.4
20260905174553 98 341 0.9 1.7 0.00 0.00 0.00 36 1017.7
20260905174049 98 292 2.6 2.6 0.00 0.00 0.00 37 1017.8
20260905173545 98 282 0.0 1.7 0.00 0.00 0.00 38 1017.7
20260905173040 98 154 0.0 2.6 0.00 0.00 0.00 38 1017.8